Date String (YYYY-MM-DD hh:mm:ss) UTC,Instrument flags,absolute air pressure of the measurement (hPa),sample flow rate (lpm),inlet stack bypass flow (lpm),air temperature of the measurement (°C),ambient temperature measured by the external sensor (°C),aerosol sample conditioner tube jacket temperature (°C),OPC LED temperature (°C),internal box temperature (°C),relative humidity of the measurement (%),span deviation,mass concentration of particles derived from Lorenz-Mie calculation of OPC scattering (μg/m³),mass concentration of particles derived from Lorenz-Mie calculation of OPC scattering (μg/m³),mass concentration of particles derived from Lorenz-Mie calculation of OPC scattering (μg/m³)
DateTimeUTC,F1_M11,P_M11,Q1_M11,Q2_M11,T1_M11,T2_M11,T3_M11,T4_M11,T5_M11,U1_M11,ZSPAN_M11,X0_M11,X2_M11,X1_M11
2024-02-25 07:00:00,SystemResetWarning,0824.7,5.01,000.00,021.6,020.7,000.0,030.1,023.3,05.9,0000.0,0012.15,0003.76,0001.57
2024-02-25 07:01:00,SystemResetWarning,0824.7,4.99,000.00,021.6,020.6,000.0,030.1,023.3,05.9,0000.0,0012.80,0003.74,0001.56
2024-02-25 07:02:00,SystemResetWarning,0824.5,4.99,000.00,021.6,020.6,000.0,030.0,023.3,05.8,0000.0,0013.26,0003.76,0001.56
2024-02-25 07:03:00,SystemResetWarning,0824.4,5.01,000.00,021.5,020.6,000.0,030.0,023.3,05.8,0000.0,0013.43,0003.78,0001.56
2024-02-25 07:04:00,SystemResetWarning,0824.4,5.01,000.00,021.5,020.6,000.0,030.0,023.3,05.9,0000.0,0013.32,0003.69,0001.55
2024-02-25 07:05:00,SystemResetWarning,0824.4,5.00,000.00,021.5,020.6,000.0,030.0,023.3,05.9,0000.0,0013.34,0003.67,0001.54
2024-02-25 07:06:00,SystemResetWarning,0824.5,4.99,000.00,021.5,020.6,000.0,030.0,023.3,05.9,0000.0,0013.49,0003.75,0001.55
2024-02-25 07:07:00,SystemResetWarning,0824.5,4.99,000.00,021.5,020.6,000.0,030.0,023.3,05.9,0000.0,0013.57,0003.78,0001.54
2024-02-25 07:08:00,SystemResetWarning,0824.4,5.01,000.00,021.5,020.7,000.0,030.0,023.3,05.9,0000.0,0013.72,0003.79,0001.52
2024-02-25 07:09:00,SystemResetWarning,0824.4,5.01,000.00,021.5,020.7,000.0,030.0,023.3,06.0,0000.0,0013.14,0003.82,0001.53
2024-02-25 07:10:00,SystemResetWarning,0824.4,5.01,000.00,021.5,020.7,000.0,030.0,023.3,06.0,0000.0,0012.99,0003.84,0001.54
2024-02-25 07:11:00,SystemResetWarning,0824.5,4.99,000.00,021.5,020.7,000.0,030.0,023.3,06.0,0000.0,0013.67,0003.88,0001.56
2024-02-25 07:12:00,SystemResetWarning,0824.4,4.99,000.00,021.5,020.7,000.0,030.0,023.3,05.9,0000.0,0013.12,0003.90,0001.57
2024-02-25 07:13:00,SystemResetWarning,0824.4,5.00,000.00,021.5,020.7,000.0,030.0,023.2,06.0,0000.0,0012.88,0003.94,0001.58
2024-02-25 07:14:00,SystemResetWarning,0824.4,5.00,000.00,021.5,020.7,000.0,030.0,023.2,06.0,0000.0,0013.54,0003.94,0001.59
2024-02-25 07:15:00,SystemResetWarning,0824.4,5.00,000.00,021.5,020.7,000.0,030.0,023.2,05.9,0000.0,0013.36,0003.93,0001.59
2024-02-25 07:16:00,SystemResetWarning,0824.4,5.00,000.00,021.5,020.7,000.0,030.0,023.3,05.8,0000.0,0013.52,0003.95,0001.60
2024-02-25 07:17:00,SystemResetWarning,0824.4,5.00,000.00,021.5,020.7,000.0,029.9,023.3,05.9,0000.0,0014.34,0003.93,0001.61
2024-02-25 07:18:00,SystemResetWarning,0824.4,5.00,000.00,021.5,020.7,000.0,029.9,023.2,05.9,0000.0,0014.44,0003.93,0001.59
2024-02-25 07:19:00,SystemResetWarning,0824.4,5.00,000.00,021.5,020.6,000.0,029.9,023.2,06.0,0000.0,0014.21,0003.92,0001.59
2024-02-25 07:20:00,SystemResetWarning,0824.5,5.00,000.00,021.5,020.6,000.0,029.9,023.2,06.0,0000.0,0013.55,0003.91,0001.58
2024-02-25 07:21:00,SystemResetWarning,0824.3,5.00,000.00,021.5,020.6,000.0,029.9,023.2,06.1,0000.0,0014.28,0003.91,0001.58
2024-02-25 07:22:00,SystemResetWarning,0824.1,5.00,000.00,021.5,020.6,000.0,029.9,023.2,06.0,0000.0,0013.77,0003.85,0001.58
2024-02-25 07:23:00,SystemResetWarning,0824.4,5.00,000.00,021.4,020.6,000.0,029.9,023.2,06.0,0000.0,0013.58,0003.81,0001.59
2024-02-25 07:24:00,SystemResetWarning,0824.4,5.01,000.00,021.4,020.6,000.0,029.9,023.2,06.0,0000.0,0013.38,0003.80,0001.59
2024-02-25 07:25:00,SystemResetWarning,0824.4,5.00,000.00,021.4,020.6,000.0,029.9,023.2,06.0,0000.0,0013.21,0003.83,0001.59
2024-02-25 07:26:00,SystemResetWarning,0824.2,5.00,000.00,021.4,020.5,000.0,029.9,023.2,06.0,0000.0,0013.64,0003.86,0001.59
2024-02-25 07:27:00,SystemResetWarning,0824.3,5.00,000.00,021.4,020.5,000.0,029.9,023.2,06.0,0000.0,0013.45,0003.87,0001.59
2024-02-25 07:28:00,SystemResetWarning,0824.4,5.00,000.00,021.4,020.5,000.0,029.9,023.2,06.0,0000.0,0012.74,0003.90,0001.59
2024-02-25 07:29:00,SystemResetWarning,0824.4,5.00,000.00,021.4,020.5,000.0,029.9,023.2,06.0,0000.0,0012.76,0003.90,0001.59
2024-02-25 07:30:00,SystemResetWarning,0824.2,5.00,000.00,021.4,020.5,000.0,029.9,023.1,06.0,0000.0,0012.82,0003.92,0001.60
2024-02-25 07:31:00,SystemResetWarning,0824.3,5.00,000.00,021.4,020.5,000.0,029.9,023.1,06.0,0000.0,0012.65,0003.88,0001.63
2024-02-25 07:32:00,SystemResetWarning,0824.3,5.00,000.00,021.4,020.5,000.0,029.9,023.1,06.0,0000.0,0012.49,0003.87,0001.63
2024-02-25 07:33:00,SystemResetWarning,0824.2,5.00,000.00,021.4,020.5,000.0,029.9,023.1,06.1,0000.0,0011.94,0003.91,0001.62
2024-02-25 07:34:00,SystemResetWarning,0824.2,5.01,000.00,021.4,020.5,000.0,029.9,023.1,06.1,0000.0,0012.13,0003.93,0001.63
2024-02-25 07:35:00,SystemResetWarning,0824.2,5.00,000.00,021.4,020.5,000.0,029.8,023.1,06.1,0000.0,0011.75,0003.89,0001.64
2024-02-25 07:36:00,SystemResetWarning,0824.2,4.99,000.00,021.4,020.5,000.0,029.8,023.1,06.2,0000.0,0011.25,0003.83,0001.63
2024-02-25 07:37:00,SystemResetWarning,0824.2,5.01,000.00,021.4,020.5,000.0,029.8,023.1,06.1,0000.0,0011.01,0003.83,0001.64
2024-02-25 07:38:00,SystemResetWarning,0824.2,5.01,000.00,021.4,020.5,000.0,029.8,023.1,05.9,0000.0,0010.97,0003.79,0001.65
2024-02-25 07:39:00,SystemResetWarning,0824.1,5.00,000.00,021.4,020.4,000.0,029.8,023.1,05.9,0000.0,0010.55,0003.71,0001.66
2024-02-25 07:40:00,SystemResetWarning,0824.1,4.99,000.00,021.3,020.4,000.0,029.8,023.1,05.9,0000.0,0010.37,0003.70,0001.65
2024-02-25 07:41:00,SystemResetWarning,0824.1,4.99,000.00,021.3,020.4,000.0,029.8,023.1,05.9,0000.0,0010.35,0003.66,0001.64
2024-02-25 07:42:00,SystemResetWarning,0824.2,5.00,000.00,021.3,020.4,000.0,029.8,023.1,05.9,0000.0,0010.30,0003.65,0001.64
2024-02-25 07:43:00,SystemResetWarning,0824.2,5.00,000.00,021.3,020.4,000.0,029.8,023.0,06.0,0000.0,0009.85,0003.63,0001.62
2024-02-25 07:44:00,SystemResetWarning,0824.0,5.00,000.00,021.3,020.4,000.0,029.8,023.0,06.0,0000.0,0009.55,0003.61,0001.62
2024-02-25 07:45:00,SystemResetWarning,0824.0,4.99,000.00,021.3,020.4,000.0,029.8,023.0,06.0,0000.0,0010.22,0003.60,0001.62
2024-02-25 07:46:00,SystemResetWarning,0824.0,4.99,000.00,021.3,020.4,000.0,029.8,023.0,06.0,0000.0,0010.65,0003.64,0001.62
2024-02-25 07:47:00,SystemResetWarning,0824.2,5.00,000.00,021.3,020.4,000.0,029.8,023.0,06.0,0000.0,0010.75,0003.68,0001.62
2024-02-25 07:48:00,SystemResetWarning,0824.1,5.01,000.00,021.3,020.4,000.0,029.7,023.0,06.0,0000.0,0010.45,0003.67,0001.62
2024-02-25 07:49:00,SystemResetWarning,0824.1,5.00,000.00,021.3,020.4,000.0,029.7,023.0,05.8,0000.0,0010.58,0003.73,0001.64
2024-02-25 07:50:00,SystemResetWarning,0824.0,5.00,000.00,021.3,020.4,000.0,029.7,023.0,05.8,0000.0,0010.87,0003.77,0001.63
2024-02-25 07:51:00,SystemResetWarning,0824.0,4.99,000.00,021.3,020.4,000.0,029.7,023.0,05.8,0000.0,0010.90,0003.75,0001.63
2024-02-25 07:52:00,SystemResetWarning,0824.0,5.00,000.00,021.2,020.3,000.0,029.7,022.9,05.7,0000.0,0011.06,0003.81,0001.65
2024-02-25 07:53:00,SystemResetWarning,0824.0,4.99,000.00,021.2,020.3,000.0,029.7,022.9,05.7,0000.0,0011.27,0003.86,0001.66
2024-02-25 07:54:00,SystemResetWarning,0824.1,4.99,000.00,021.2,020.3,000.0,029.7,022.9,05.8,0000.0,0011.51,0003.93,0001.66
2024-02-25 07:55:00,SystemResetWarning,0824.0,5.01,000.00,021.2,020.3,000.0,029.7,022.9,05.7,0000.0,0011.99,0003.94,0001.66
2024-02-25 07:56:00,SystemResetWarning,0824.0,5.01,000.00,021.2,020.3,000.0,029.7,022.9,05.8,0000.0,0011.89,0003.98,0001.66
2024-02-25 07:57:00,SystemResetWarning,0823.9,5.00,000.00,021.2,020.3,000.0,029.7,022.9,05.8,0000.0,0011.17,0003.94,0001.65
2024-02-25 07:58:00,SystemResetWarning,0823.9,5.00,000.00,021.2,020.3,000.0,029.7,022.9,05.8,0000.0,0011.06,0003.94,0001.65
2024-02-25 07:59:00,SystemResetWarning,0823.9,5.00,000.00,021.2,020.3,000.0,029.7,022.9,05.8,0000.0,0011.11,0003.96,0001.66
